Weather History for Covington, KY

Change the Weather History Date:

Thursday, March 14, 2013

  Actual Average Record
Temperature  
Mean Temperature 32 °F 43 °F  
Max Temperature 44 °F 52 °F 80 °F (1990)
Min Temperature 19 °F 33 °F 11 °F (1993)
Degree Days  
Heating Degree Days 33 22  
Month to date heating degree days 407 343  
Since 1 July heating degree days 4117 4170  
Cooling Degree Days 0 0  
Month to date cooling degree days 0 0  
Year to date cooling degree days 0 0  
Moisture  
Dew Point 18 °F    
Average Humidity 61    
Maximum Humidity 92    
Minimum Humidity 30    
Precipitation  
Precipitation 0.00 in 0.12 in 2.35 in (1922)
Month to date precipitation 2.09 1.60  
Year to date precipitation 7.69 7.41  
Snow  
Snow 0.00 in 0.10 in 4.20 in (1999)
Month to date snowfall 5.5 1.7  
Since 1 July snowfall 21.9 20.3  
Snow Depth 0.00 in    
Sea Level Pressure  
Sea Level Pressure 30.30 in    
Wind  
Wind Speed 6 mph (West)    
Max Wind Speed 15 mph    
Max Gust Speed 17 mph    
Visibility 10 miles    
Events      
T = Trace of Precipitation, MM = Missing Value Source: NWS Daily Summary

Daily Weather History Graph

Daily Weather History Graph

Search for Another Location

Airport:

Trip Planner

Search our weather history database for the weather conditions in past years. The results will help you decide how hot, cold, wet, or windy it might be!

Date:

Astronomy

Mar. 14, 2013 Rise Set
Actual Time 7:51 AM EDT 7:44 PM EDT
Civil Twilight 7:24 AM EDT 8:11 PM EDT
Nautical Twilight 6:53 AM EDT 8:42 PM EDT
Astronomical Twilight 6:22 AM EDT 9:14 PM EDT
Moon 9:06 AM EDT (3/14) 10:58 PM EDT (3/14)
Length of Visible Light 12h 47m
Length of Day
11h 53m
Waxing Crescent, 9% of the Moon is Illuminated
Mar 14
Waxing Crescent
Mar 19
First Quarter
Mar 27
Full
Apr 3
Last Quarter
Apr 10
New

Hourly Weather History & Observations

Time (EDT) Temp. Windchill Dew Point Humidity Pressure Visibility Wind Dir Wind Speed Gust Speed Precip Events Conditions
12:52 AM 26.1 °F 18.4 °F 21.0 °F 81% 30.34 in 10.0 mi WSW 6.9 mph - N/A   Clear
1:52 AM 24.1 °F 18.2 °F 19.9 °F 84% 30.35 in 10.0 mi West 4.6 mph - N/A   Clear
2:52 AM 24.1 °F 17.0 °F 19.9 °F 84% 30.35 in 10.0 mi WSW 5.8 mph - N/A   Clear
3:52 AM 23.0 °F 17.0 °F 19.9 °F 88% 30.35 in 10.0 mi WSW 4.6 mph - N/A   Clear
4:52 AM 21.9 °F 17.2 °F 19.0 °F 89% 30.35 in 10.0 mi West 3.5 mph - N/A   Clear
5:52 AM 21.0 °F 14.6 °F 18.0 °F 88% 30.35 in 10.0 mi WSW 4.6 mph - N/A   Clear
6:52 AM 21.9 °F 15.7 °F 19.0 °F 89% 30.35 in 10.0 mi SW 4.6 mph - N/A   Clear
7:52 AM 21.0 °F 14.6 °F 18.0 °F 88% 30.37 in 8.0 mi SW 4.6 mph - N/A   Partly Cloudy
8:52 AM 24.1 °F 19.7 °F 19.9 °F 84% 30.36 in 10.0 mi SW 3.5 mph - N/A   Scattered Clouds
9:52 AM 28.4 °F 23.3 °F 21.2 °F 74% 30.34 in 10.0 mi West 4.6 mph - N/A   Partly Cloudy
10:52 AM 32.0 °F 24.8 °F 18.0 °F 56% 30.37 in 10.0 mi WNW 8.1 mph - N/A   Partly Cloudy
11:52 AM 35.1 °F 27.9 °F 17.1 °F 48% 30.36 in 10.0 mi WNW 9.2 mph - N/A   Clear
12:52 PM 37.0 °F 31.6 °F 18.0 °F 46% 30.34 in 10.0 mi Variable 6.9 mph - N/A   Scattered Clouds
1:52 PM 39.9 °F 34.5 °F 18.0 °F 41% 30.32 in 10.0 mi West 8.1 mph - N/A   Mostly Cloudy
2:52 PM 42.1 °F 35.7 °F 16.0 °F 35% 30.29 in 10.0 mi WNW 11.5 mph 17.3 mph N/A   Mostly Cloudy
3:52 PM 42.1 °F 36.1 °F 14.0 °F 32% 30.26 in 10.0 mi WNW 10.4 mph - N/A   Overcast
4:52 PM 43.0 °F 39.5 °F 14.0 °F 31% 30.24 in 10.0 mi West 5.8 mph - N/A   Mostly Cloudy
5:52 PM 42.1 °F 36.1 °F 14.0 °F 32% 30.24 in 10.0 mi West 10.4 mph - N/A   Mostly Cloudy
6:52 PM 41.0 °F 39.0 °F 16.0 °F 36% 30.23 in 10.0 mi West 3.5 mph - N/A   Overcast
7:52 PM 41.0 °F - 16.0 °F 36% 30.22 in 10.0 mi Calm Calm - N/A   Overcast
8:52 PM 39.9 °F 36.7 °F 17.1 °F 40% 30.22 in 10.0 mi WSW 4.6 mph - N/A   Overcast
9:52 PM 37.9 °F 34.4 °F 19.9 °F 48% 30.22 in 10.0 mi WSW 4.6 mph - N/A   Mostly Cloudy
10:52 PM 39.0 °F 34.0 °F 21.9 °F 50% 30.22 in 10.0 mi WSW 6.9 mph - N/A   Overcast
11:52 PM 36.0 °F 31.1 °F 25.0 °F 64% 30.19 in 10.0 mi WSW 5.8 mph - N/A   Clear